www.pogodaiklimat.ru

Погода и климат >> Архив погоды >> Антарктида >> Troll


ПОГОДА в Troll

  • Прогноз погоды в Troll
  • Монитор погоды в Troll
  • Климат города

АРХИВ ПОГОДЫ в Troll

Время (UTC), дата Ветер
(напр.,м/с)
 
Видим.   Явления Облачность Т
(С)
Тd
(С)
f
(%)
Тe
(С)
Тes
(С)
Комфортность P
(гПа)
Po
(гПа)
Тmin
(С)
Tmax
(С)
R
(мм)
R24
(мм)
S
(см)
07 11.08 штиль 0 н/о н/о -25.8 -35.3 40 -26 -26 987.8 830.6
08 11.08 СВ 1 н/о н/о -26.5 -35.5 42 -28 -28 988.7 831.0
09 11.08 В 1 н/о н/о -26.2 -35.7 40 -27 -27 988.9 831.3
10 11.08 В 1 н/о н/о -25.7 -35.7 39 -27 -27 988.8 831.5
11 11.08 Ю 2 н/о н/о -24.3 -35.6 34 -30 -30 988.0 831.7
12 11.08 СВ 1
{3}
н/о н/о -23.7 -35.6 33 -25 -25 988.3 832.2
13 11.08 В 2 н/о н/о -23.4 -35.0 34 -29 -29 988.3 832.4
14 11.08 Ю 1 н/о н/о -23.8 -36.0 32 -25 -25 988.9 832.7
15 11.08 Ю 1 н/о н/о -23.3 -35.6 31 -24 -24 988.6 832.7
16 11.08 В 1 н/о н/о -22.9 -35.2 32 -24 -24 989.0 833.2
17 11.08 ЮВ 1 н/о н/о -22.6 -34.3 34 -23 -23 989.0 833.6
18 11.08 Ю 1
{2}
>70 км ясно -22.6 -33.7 36 -26 -26 989.5 833.8 -22.2
19 11.08 В 2 н/о н/о -22.6 -32.6 40 -28 -28 989.7 834.0
20 11.08 В 2 н/о н/о -22.4 -31.7 42 -27 -27 990.0 834.4
21 11.08 ЮВ 1 н/о н/о -22.2 -32.8 38 -23 -23 990.1 834.6
22 11.08 В 1 н/о н/о -22.3 -31.6 42 -26 -26 990.4 834.9
23 11.08 В 1 н/о н/о -22.1 -32.4 39 -23 -23 990.5 835.1
00 12.08 В 2
{3}
н/о н/о -21.9 -32.0 39 -27 -27 990.8 835.5
01 12.08 В 2 н/о н/о -21.7 -30.3 46 -28 -28 991.1 835.7
02 12.08 В 2 н/о н/о -21.5 -30.6 44 -28 -28 991.2 836.0
03 12.08 В 2 н/о н/о -21.4 -31.0 42 -28 -28 991.5 836.2
04 12.08 Ю 1 н/о н/о -20.5 -31.2 38 -24 -24 991.0 836.2
05 12.08 Ю 1 н/о н/о -20.1 -31.4 36 -23 -23 990.7 836.3
06 12.08 В 1
{3}
>70 км ясно -20.6 -31.0 39 -24 -24 991.4 836.6 -23.3
07 12.08 В 2 н/о н/о -20.2 -29.4 44 -26 -26 991.6 837.0
08 12.08 ЮВ 2 н/о н/о -19.3 -28.8 43 -24 -24 991.4 837.1
09 12.08 ЮВ 2 н/о н/о -18.6 -27.4 46 -24 -24 990.3 836.8
10 12.08 В 2 н/о н/о -18.2 -26.8 47 -23 -23 989.8 836.6
11 12.08 ЮВ 2 н/о н/о -17.8 -26.0 49 -22 -22 989.6 836.6
12 12.08 ЮВ 2
{3}
35 км 5/0
[Ci fib]
-17.4 -25.2 51 -22 -22 989.2 836.5 0.0
13 12.08 В 2 н/о н/о -16.7 -25.4 47 -22 -22 989.2 836.9
14 12.08 ЮВ 2 н/о н/о -16.5 -24.8 49 -21 -21 989.1 836.9
15 12.08 В 1 н/о н/о -16.3 -24.2 50 -19 -19 989.7 837.4
16 12.08 В 2 н/о н/о -16.6 -24.2 52 -21 -21 990.0 837.5
17 12.08 Ю 1 н/о н/о -16.8 -24.4 52 -20 -20 990.2 837.7
18 12.08 ЮВ 2
{3}
>70 км ясно -16.7 -24.3 52 -21 -21 990.5 838.0 -16.0
19 12.08 ЮВ 1 н/о н/о -15.9 -24.0 50 -19 -19 990.4 838.2
20 12.08 Ю 3 н/о н/о -15.8 -24.8 46 -22 -22 990.3 838.2
21 12.08 Ю 3 н/о н/о -17.2 -25.9 47 -24 -24 991.1 838.2
22 12.08 Ю 4 н/о н/о -17.5 -27.6 41 -25 -25 990.5 837.6
23 12.08 ЮЗ 1 н/о н/о -17.4 -29.0 36 -20 -20 990.2 837.4
00 13.08 В 1
{6}
н/о н/о -18.8 -28.6 42 -19 -19 991.5 837.6
01 13.08 Ю 1 н/о н/о -18.7 -28.2 43 -22 -22 991.8 838.0
02 13.08 В 1 н/о н/о -17.3 -27.2 42 -18 -18 990.8 837.8
03 13.08 Ю 2 н/о н/о -17.7 -27.6 42 -22 -22 990.4 837.3
04 13.08 В 1 н/о н/о -18.0 -27.6 43 -19 -19 989.9 837.0
05 13.08 Ю 2 н/о н/о -17.9 -27.8 42 -22 -22 989.8 836.8
06 13.08 СВ 1
{2}
11 км ?/? -17.9 -27.8 42 -21 -21 990.1 837.0 -20.0 0.0
07 13.08 В 2 н/о н/о -18.6 -27.7 45 -23 -23 991.4 837.7
08 13.08 Ю 2 н/о н/о -19.3 -28.1 46 -24 -24 991.6 837.5
09 13.08 ЮЗ 1 н/о н/о -18.3 -27.9 43 -19 -19 990.2 836.9
10 13.08 В 1 н/о н/о -18.5 -27.6 45 -19 -19 990.6 837.0
11 13.08 ЮВ 1 н/о н/о -19.5 -27.8 48 -20 -20 991.3 837.1
12 13.08 СВ 1
{2}
35 км ясно -18.7 -27.8 45 -19 -19 990.4 837.0 0.0
13 13.08 СВ 1 н/о н/о -20.2 -28.5 47 -23 -23 991.5 837.2
14 13.08 В 1 н/о н/о -20.1 -26.5 57 -21 -21 992.2 837.6
15 13.08 СВ 2 н/о н/о -21.9 -27.9 58 -27 -27 992.9 837.2
16 13.08 СВ 1 н/о н/о -22.7 -28.1 61 -26 -26 994.3 837.8
17 13.08 СВ 2 н/о н/о -23.7 -28.1 67 -30 -30 995.0 837.7
18 13.08 В 3
{6}
11 км ?/? -24.2 -27.3 75 -32 -32 опасность
обморожения
996.4 838.7 -17.7 0.0
19 13.08 ЮВ 5 н/о н/о -24.3 -32.7 46 -36 -36 опасность
обморожения
995.8 838.3
20 13.08 С 3 н/о н/о -24.4 -30.6 56 -32 -32 опасность
обморожения
996.4 838.7
21 13.08 СВ 2 н/о н/о -24.7 -28.0 74 -30 -30 997.5 839.4
22 13.08 Ю 2 н/о н/о -25.0 -28.1 75 -32 -32 опасность
обморожения
997.6 839.3
23 13.08 ЮВ 2 н/о н/о -23.8 -31.2 50 -30 -30 995.6 838.4
00 14.08 Ю 2
{9}
н/о н/о -24.3 -33.2 43 -30 -30 995.3 837.8
01 14.08 В 1 н/о н/о -23.9 -33.6 40 -27 -27 994.3 837.4
02 14.08 В 1 н/о н/о -23.2 -33.4 39 -24 -24 993.5 836.9
03 14.08 Ю 1 н/о н/о -23.6 -33.8 39 -27 -27 993.3 836.5
04 14.08 Ю 1 н/о н/о -22.8 -34.2 34 -24 -24 992.6 836.4
05 14.08 Ю 1 н/о н/о -23.1 -34.2 35 -24 -24 992.7 836.3
06 14.08 Ю 1
{2}
>70 км ясно -23.1 -33.6 38 -27 -27 992.4 836.0 -26.5
07 14.08 Ю 2 н/о н/о -22.5 -32.5 40 -28 -28 991.1 835.3
08 14.08 Ю 2 н/о н/о -22.6 -32.9 38 -28 -28 991.1 835.3
09 14.08 СВ 1 н/о н/о -23.6 -33.5 40 -24 -24 992.0 835.4
10 14.08 В 1 н/о н/о -21.9 -32.8 37 -23 -23 991.1 835.6
11 14.08 Ю 2 н/о н/о -22.4 -32.7 39 -27 -27 991.4 835.5
12 14.08 ЮЗ 2
{4}
35 км ясно -22.2 -33.1 36 -27 -27 991.0 835.3 0.0
13 14.08 В 1 н/о н/о -21.1 -31.2 40 -24 -24 990.4 835.4
14 14.08 В 2 н/о н/о -21.6 -30.9 43 -27 -27 990.5 835.3
15 14.08 Ю 1 н/о н/о -21.3 -30.9 42 -25 -25 989.9 834.9
16 14.08 Ю 1 н/о н/о -21.9 -31.7 41 -23 -23 990.0 834.6
17 14.08 ЮВ 1 н/о н/о -21.0 -30.9 41 -24 -24 989.0 834.3
18 14.08 Ю 1
{3}
11 км ?/? -20.5 -31.8 36 -21 -21 987.8 833.8 -20.0 0.0
19 14.08 ЮЗ 1 н/о н/о -20.9 -31.6 38 -24 -24 988.5 833.8
20 14.08 Ю 1 н/о н/о -19.5 -30.9 36 -20 -20 987.4 833.8
21 14.08 ЮВ 1 н/о н/о -19.6 -30.7 37 -20 -20 987.4 833.8
22 14.08 Ю 1 н/о н/о -19.5 -30.9 36 -20 -20 987.4 833.8
23 14.08 В 2 н/о н/о -19.2 -30.0 38 -24 -24 987.0 833.8
00 15.08 Ю 1
{3}
н/о н/о -18.5 -28.6 41 -19 -19 986.6 833.7
01 15.08 Ю 2 н/о н/о -19.5 -28.3 46 -25 -25 987.3 833.5
02 15.08 Ю 1 н/о н/о -18.1 -28.2 41 -21 -21 986.2 833.5
03 15.08 В 2 н/о н/о -17.9 -28.0 41 -22 -22 985.8 833.4
04 15.08 Ю 2 н/о н/о -18.8 -28.8 41 -23 -23 986.0 833.0
05 15.08 ЮВ 1 н/о н/о -19.0 -30.7 35 -20 -20 985.9 832.9
06 15.08 ЮВ 3
{4}
11 км ?/? -18.9 -29.8 38 -26 -26 986.8 833.4 -22.7 0.0
07 15.08 ЮВ 1 н/о н/о -18.5 -29.1 39 -21 -21 986.0 833.1
08 15.08 В 1 н/о н/о -18.3 -29.2 38 -21 -21 986.1 833.2
09 15.08 ЮВ 1 н/о н/о -19.4 -29.9 39 -20 -20 986.7 833.2
10 15.08 В 1 н/о н/о -17.7 -28.9 37 -18 -18 985.5 833.1
11 15.08 В 1 н/о н/о -18.0 -29.2 37 -21 -21 985.8 833.3
12 15.08 В 2
{3}
35 км 3/3 1500 м
[Cu hum]
-17.3 -27.5 41 -22 -22 985.4 833.3 0.0
13 15.08 Ю 1 н/о н/о -17.0 -27.2 41 -20 -20 985.1 833.2
14 15.08 В 1 н/о н/о -17.1 -27.5 40 -20 -20 985.4 833.4
15 15.08 СВ 1 н/о н/о -17.7 -27.8 41 -18 -18 985.9 833.6
16 15.08 ЮЗ 1 н/о н/о -18.8 -28.1 44 -19 -19 986.7 833.6
17 15.08 ЮВ 1 н/о н/о -18.4 -28.0 43 -19 -19 986.6 833.7
18 15.08 ЮВ 1
{3}
11 км ?/? -17.8 -27.2 44 -18 -18 986.2 833.7 -16.2 0.0
19 15.08 В 1 н/о н/о -17.2 -27.1 42 -18 -18 986.0 833.8
20 15.08 Ю 1 н/о н/о -17.8 -27.7 42 -18 -18 986.8 834.3
21 15.08 В 2 н/о н/о -20.3 -28.6 47 -25 -25 989.1 834.9
22 15.08 СВ 1 н/о н/о -20.2 -27.4 53 -21 -21 989.4 835.1
23 15.08 СВ 1 н/о н/о -19.9 -27.3 52 -21 -21 989.5 835.4
00 16.08 ЮЗ 1
{3}
н/о н/о -21.0 -27.6 55 -24 -24 990.6 835.7
01 16.08 СВ 1 н/о н/о -20.6 -27.4 54 -21 -21 990.7 836.0
02 16.08 ЮЗ 1 н/о н/о -20.1 -25.1 64 -23 -23 990.4 836.0
03 16.08 Ю 2 н/о н/о -20.4 -25.9 61 -26 -26 990.7 836.1
04 16.08 Ю 2 н/о н/о -20.7 -26.1 62 -27 -27 991.1 836.3
05 16.08 Ю 3 н/о н/о -21.4 -26.9 61 -29 -29 991.7 836.5
06 16.08 Ю 2
{4}
11 км ?/? -22.0 -27.1 63 -28 -28 992.6 836.9 -22.0 0.0
07 16.08 Ю 2 н/о н/о -21.6 -26.6 64 -28 -28 992.2 836.7
08 16.08 З 1 н/о н/о -22.8 -27.7 64 -24 -24 993.3 837.0
09 16.08 ЮЗ 2 н/о н/о -23.3 -27.9 66 -29 -29 993.2 836.7
10 16.08 ЮЗ 1 н/о н/о -24.2 -29.4 62 -25 -25 994.0 836.8
11 16.08 В 2 н/о н/о -22.9 -27.4 67 -29 -29 993.3 836.9
12 16.08 С 1
{4}
35 км ясно -22.7 -27.3 66 -24 -23 993.1 836.9 0.0
13 16.08 Ю 1 н/о н/о -22.2 -27.0 65 -23 -23 992.7 836.8
14 16.08 СВ 1 н/о н/о -23.2 -28.8 60 -24 -24 993.0 836.5
15 16.08 Ю 1 н/о н/о -23.8 -29.4 60 -25 -25 993.1 836.2
16 16.08 СВ 1 н/о н/о -23.0 -29.1 57 -26 -26 992.9 836.6
17 16.08 Ю 1 н/о н/о -22.2 -28.7 55 -23 -23 992.6 836.7
18 16.08 Ю 1
{2}
11 км ?/? -22.6 -29.3 54 -23 -23 993.4 837.2 -21.2 0.0
19 16.08 СВ 1 н/о н/о -22.9 -29.2 56 -24 -24 994.0 837.6
20 16.08 ЮЗ 1 н/о н/о -24.8 -31.2 55 -26 -26 995.6 837.8
21 16.08 В 2 н/о н/о -25.5 -31.9 55 -31 -31 опасность
обморожения
996.6 838.2
22 16.08 СЗ 1 н/о н/о -26.8 -32.2 60 -28 -28 997.4 838.2
23 16.08 штиль 0 н/о н/о -26.2 -31.7 60 -26 -26 997.1 838.2
00 17.08 В 1
{3}
н/о н/о -26.2 -31.5 61 -27 -27 997.4 838.5
01 17.08 В 2 н/о н/о -25.9 -31.2 61 -31 -31 опасность
обморожения
997.7 838.9
02 17.08 В 1 н/о н/о -28.4 -33.0 65 -30 -30 999.8 839.2
03 17.08 В 2 н/о н/о -27.0 -32.6 59 -33 -33 опасность
обморожения
999.0 839.4
04 17.08 СВ 1 н/о н/о -28.2 -33.1 63 -29 -29 1000.4 839.8
05 17.08 СВ 1 н/о н/о -27.5 -33.8 55 -31 -31 опасность
обморожения
1000.3 840.2
06 17.08 Ю 1
{2}
11 км ?/? -26.9 -33.5 53 -28 -28 999.7 840.1 -29.7 0.0
07 17.08 Ю 1 н/о н/о -28.0 -35.0 51 -32 -32 опасность
обморожения
1000.6 840.2
08 17.08 В 1 н/о н/о -26.5 -34.2 48 -28 -28 1000.3 840.7
09 17.08 В 1 н/о н/о -26.2 -34.7 45 -27 -27 1000.3 841.0
10 17.08 Ю 2 н/о н/о -25.8 -34.1 46 -31 -31 опасность
обморожения
1000.4 841.3
11 17.08 ЮЗ 1 н/о н/о -25.3 -33.7 45 -26 -26 1000.3 841.4
12 17.08 ЮВ 1
{2}
>70 км 1/0
[Ci fib]
-25.8 -33.7 47 -30 -29 1000.8 841.6 0.0
13 17.08 ЮЗ 1 н/о н/о -26.2 -33.3 51 -30 -30 1001.1 841.5
14 17.08 Ю 1 н/о н/о -25.4 -34.7 41 -26 -26 1000.6 841.6
15 17.08 Ю 1 н/о н/о -26.2 -35.2 42 -30 -30 1001.6 842.0
16 17.08 Ю 1 н/о н/о -25.6 -34.2 44 -29 -29 1000.6 841.5
17 17.08 штиль 0 н/о н/о -25.9 -34.5 44 -26 -26 1000.4 841.2
18 17.08 В 2
{2}
11 км ?/? -26.2 -34.5 45 -32 -32 опасность
обморожения
1000.3 841.0 -24.8 0.0
19 17.08 В 2 н/о н/о -26.4 -34.9 44 -32 -32 опасность
обморожения
999.9 840.5
20 17.08 СВ 1 н/о н/о -27.5 -35.5 46 -29 -29 1000.6 840.4
21 17.08 ЮВ 1 н/о н/о -27.1 -35.1 47 -28 -28 1000.0 840.1
22 17.08 ЮЗ 1 н/о н/о -27.5 -35.9 45 -29 -29 999.8 839.7
23 17.08 СВ 1 н/о н/о -26.8 -35.5 43 -28 -28 998.8 839.3
00 18.08 СВ 1
{2}
н/о н/о -27.6 -35.8 45 -32 -32 опасность
обморожения
998.9 838.9
01 18.08 ЮЗ 1 н/о н/о -27.6 -35.8 45 -29 -29 998.3 838.6
02 18.08 ЮЗ 1 н/о н/о -26.6 -35.3 44 -28 -28 996.9 837.8
03 18.08 Ю 1 н/о н/о -26.9 -36.6 39 -28 -28 996.2 837.1
04 18.08 СЗ 1 н/о н/о -25.8 -36.4 36 -27 -27 994.5 836.3
05 18.08 ЮВ 1 н/о н/о -23.0 -35.3 31 -24 -24 991.8 835.8

 

Местоположение метеостанции Troll (Антарктида): широта -72.01 долгота 2.38 высота над уровнем моря 1290 м.

В архиве по умолчанию представлена погода в Troll за последнюю неделю. Архивные данные за месяц целиком и за предыдущие месяцы, начиная с января 2011 года, Вы можете получить, выбрав интересующий диапазон дат из раскрывающегося списка и нажав кнопку "Ввод!".


*Определитесь, кто Вы:
робот инопланетянин человек

Внимание! Время в таблицах - всемирное. Для получения местного времени необходимо прибавить поправку, которая в Troll равна 0 ч.

Смотрите также архив погоды в соседних городах и на ближайших метеорологических станциях:

Погода в SANAE (Антарктида) (183 км)
Погода в Kohnen Ep9 (Антарктида) (341 км)
Погода в Maitri (Антарктида) (360 км)
Погода в Novolazarevskaja (Антарктида) (362 км)
Погода в Neumayer Station (Антарктида) (406 км)
Погода в Soerasen (Антарктида) (439 км)
Погода в Nordenskiold Base (Антарктида) (537 км)
Погода в Halley (Антарктида) (970 км)
Погода в Base Belgrano Ii (Антарктида) (1220 км)
Погода в Relay Station (Антарктида) (1314 км)

Пояснения к столбцам:

Ветер - указаны скорость ветра в м/с - средняя за 10 мин, порывы в срок и между сроками (в фигурных скобках) и направление, откуда дует ветер: С - северный, СВ - северо-восточный, В - восточный, ЮВ - юго-восточный, Ю - южный, ЮЗ - юго-западный, З - западный, СЗ - северо-западный.
Видимость - горизонтальная дальность видимости в метрах или километрах. При видимости от 1 до 10 км при отсутствии осадков обычно наблюдается дымка, при ухудшении видимости до 1 км и менее - туман. В сухую погоду видимость может ухудшаться дымом, пылью или мглою.
Явления - указаны атмосферные явления, наблюдавшиеся в срок или в последний час перед сроком; фигурными скобками обозначены явления, наблюдавшиеся между сроками (за 1-3 часа до срока); квадратными скобками обозначены град или гололедные отложения с указанием их диаметра в мм.
Облачность - указаны через наклонную черту общая и нижняя облачность в баллах и высота нижней границы облаков в метрах; квадратными скобками обозначены формы облаков: Ci - перистые, Cs - перисто-слоистые, Cc - перисто-кучевые, Ac - высококучевые, As - высокослоистые, Sc - слоисто-кучевые, Ns - слоисто-дождевые, Cu - кучевые, Cb - кучево-дождевые. Подробнее классификацию облаков см. в Атласе облаков (PDF).
T - Температура воздуха - температура, измеренная на высоте 2 м над землей.
Td - Температура точки росы - температура, при понижении до которой содержащийся в воздухе водяной пар достигнет насыщения.
f - Относительная влажность воздуха - влажноcть воздуха, измеренная на высоте 2 м над землей.
Te - Эффективная температура - температура, которую ощущает одетый по сезону человек в тени. Характеристика душности погоды. При расчете учитывается влияние влажности воздуха и скорости ветра на теплоощущения человека.
Tes - Эффективная температура на солнце - температура, которую ощущает человек, с поправкой на солнечный нагрев. Характеристика знойности погоды. Зависит от высоты солнца над горизонтом, облачности и скорости ветра. Ночью, в пасмурную погоду, а также при ветре 12 м/с и более поправка равна нулю.
P - Атмосферное давление - приведенное к уровню моря атмосферное давление.
Po - Атмосферное давление - измеренное на уровне метеостанции атмосферное давление.
Tmin - Минимальная температура - минимум температуры воздуха на высоте 2 м над землей.
Tmax - Максимальная температура - максимум температуры воздуха на высоте 2 м над землей.
R - Количество осадков - Количество выпавших осадков за период времени, мм. При наведении курсора мыши на число - период времени, за который выпало указанное количество осадков.
R24 - Количество осадков - Количество выпавших осадков за 24 часа, мм.
S - Снежный покров - Высота снежного покрова, см. При наведении курсора мыши на число - состояние снежного покрова и степень покрытия местности в баллах.